Craig, CO

5:21 PM MDT on May 23, 2018 (GMT -0600)
Craig-Moffat

Weather History for KCAG - October, 2012

Change the Weather History Date:

Monday, October 29, 2012

  Actual Average Record
Temperature  
Mean Temperature 46 °F 38 °F  
Max Temperature 64 °F 54 °F 72 °F (2003)
Min Temperature 27 °F 22 °F 18 °F (2014)
Degree Days  
Heating Degree Days 19 27  
Month to date heating degree days 598 625  
Since 1 July heating degree days 830 990  
Cooling Degree Days 0 0  
Month to date cooling degree days 0 0  
Year to date cooling degree days 344 142  
Moisture  
Dew Point 29 °F    
Average Humidity 60    
Maximum Humidity 92    
Minimum Humidity 27    
Precipitation  
Precipitation 0.00 in 0.05 in 0.29 in (1999)
Month to date precipitation 0.94 1.54  
Year to date precipitation 5.70 13.50  
Sea Level Pressure  
Sea Level Pressure 30.23 in    
Wind  
Wind Speed 4 mph (WSW)    
Max Wind Speed 16 mph    
Max Gust Speed 20 mph    
Visibility 10 miles    
Events Snow    
T = Trace of Precipitation, MM = Missing Value Source: NWS Daily Summary

Daily Weather History Graph

Daily Weather History Graph

Search for Another Location

Airport or City:

Astronomy

Oct. 29, 2012 Rise Set
Actual Time 7:37 AM MDT 6:09 PM MDT
Civil Twilight 7:08 AM MDT 6:37 PM MDT
Nautical Twilight 6:36 AM MDT 7:09 PM MDT
Astronomical Twilight 6:05 AM MDT 7:41 PM MDT
Moon 6:03 PM MDT (10/29) 7:30 AM MDT (10/29)
Length of Visible Light 11h 28m
Length of Day
10h 32m
Full, 100% of the Moon is Illuminated
Oct 29
Full
Oct 29
Full
Nov 6
Last Quarter
Nov 13
New
Nov 20
First Quarter

Hourly Weather History & Observations

Time (MDT) Temp. Windchill Dew Point Humidity Pressure Visibility Wind Dir Wind Speed Gust Speed Precip Events Conditions
12:53 AM 35.1 °F - 30.0 °F 82% 30.24 in 10.0 mi Calm Calm - N/A   Clear
1:53 AM 33.1 °F - 28.9 °F 85% 30.24 in 10.0 mi Calm Calm - N/A   Clear
2:53 AM 33.1 °F - 30.0 °F 89% 30.24 in 10.0 mi Calm Calm - N/A   Scattered Clouds
3:53 AM 32.0 °F - 28.9 °F 88% 30.22 in 10.0 mi Calm Calm - N/A   Clear
4:53 AM 30.0 °F 26.5 °F 27.0 °F 88% 30.23 in 10.0 mi WNW 3.5 mph - N/A   Clear
5:53 AM 28.9 °F - 26.1 °F 89% 30.26 in 10.0 mi Calm Calm - N/A   Clear
6:53 AM 28.0 °F - 25.0 °F 88% 30.29 in 10.0 mi Calm Calm - N/A   Clear
7:53 AM 27.0 °F 21.6 °F 25.0 °F 92% 30.32 in 10.0 mi SSW 4.6 mph - N/A   Clear
8:53 AM 32.0 °F - 28.9 °F 88% 30.33 in 10.0 mi Calm Calm - N/A   Clear
9:53 AM 41.0 °F - 33.1 °F 73% 30.30 in 10.0 mi Calm Calm - N/A   Clear
10:53 AM 48.9 °F - 34.0 °F 56% 30.27 in 10.0 mi Calm Calm - N/A   Clear
11:53 AM 55.9 °F - 30.9 °F 39% 30.23 in 10.0 mi NNW 4.6 mph - N/A   Clear
12:53 PM 59.0 °F - 30.9 °F 35% 30.19 in 10.0 mi WNW 5.8 mph - N/A   Clear
1:53 PM 62.1 °F - 28.0 °F 28% 30.15 in 10.0 mi WSW 10.4 mph 18.4 mph N/A   Mostly Cloudy
2:53 PM 62.1 °F - 28.0 °F 28% 30.14 in 10.0 mi SW 8.1 mph - N/A   Clear
3:53 PM 62.1 °F - 28.0 °F 28% 30.14 in 10.0 mi WSW 11.5 mph - N/A   Clear
4:53 PM 61.0 °F - 28.9 °F 30% 30.14 in 10.0 mi West 16.1 mph - N/A   Clear
5:53 PM 55.9 °F - 28.0 °F 34% 30.17 in 10.0 mi West 10.4 mph - N/A   Clear
6:53 PM 45.0 °F - 30.0 °F 56% 30.25 in 10.0 mi Calm Calm - N/A   Clear
7:53 PM 48.0 °F - 28.9 °F 48% 30.25 in 10.0 mi Calm Calm - N/A   Clear
8:53 PM 39.0 °F 35.7 °F 28.9 °F 67% 30.27 in 10.0 mi WSW 4.6 mph - N/A   Clear
9:53 PM 37.0 °F 34.5 °F 28.0 °F 70% 30.27 in 10.0 mi SE 3.5 mph - 0.00 in Snow Light Snow
10:53 PM 35.1 °F - 28.9 °F 78% 30.26 in 10.0 mi Calm Calm - 0.00 in   Clear
11:53 PM 33.1 °F - 28.0 °F 82% 30.25 in 10.0 mi Calm Calm - N/A   Mostly Cloudy